Weather History for Middletown, OH

Change the Weather History Date:

Tuesday, March 25, 2014

  Actual Average (KDAY) Record (KDAY)
Temperature  
Mean Temperature 32 °F 44 °F  
Max Temperature 36 °F 53 °F 84 °F (1929)
Min Temperature 27 °F 34 °F 1 °F (1974)
Degree Days  
Heating Degree Days 34 21  
Month to date heating degree days 644  
Since 1 July heating degree days 4919  
Cooling Degree Days 0 0  
Month to date cooling degree days 0  
Year to date cooling degree days 0  
Moisture  
Dew Point 17 °F    
Average Humidity 59    
Maximum Humidity 80    
Minimum Humidity 37    
Precipitation  
Precipitation 0.00 in 0.12 in 2.27 in (1913)
Month to date precipitation 2.59  
Year to date precipitation 7.54  
Snow  
Snow 0.00 in 0.00 in 3.90 in (1955)
Month to date snowfall 3.0  
Since 1 July snowfall 22.3  
Snow Depth -    
Sea Level Pressure  
Sea Level Pressure 30.07 in    
Wind  
Wind Speed 5 mph (WNW)    
Max Wind Speed 23 mph    
Max Gust Speed 33 mph    
Visibility 9 miles    
Events Snow    
T = Trace of Precipitation, MM = Missing Value Source: NWS Daily Summary

Daily Weather History Graph

Daily Weather History Graph

Search for Another Location

Airport:

Trip Planner

Search our weather history database for the weather conditions in past years. The results will help you decide how hot, cold, wet, or windy it might be!

Date:

Astronomy

Mar. 25, 2014 Rise Set
Actual Time 7:33 AM EDT 7:54 PM EDT
Civil Twilight 7:06 AM EDT 8:21 PM EDT
Nautical Twilight 6:34 AM EDT 8:53 PM EDT
Astronomical Twilight 6:02 AM EDT 9:25 PM EDT
Moon 3:52 AM EDT (3/25) 2:25 PM EDT (3/25)
Length of Visible Light 13h 15m
Length of Day
12h 21m
Waning Crescent, 32% of the Moon is Illuminated
Mar 25
Waning Crescent
Mar 30
New
Apr 7
First Quarter
Apr 15
Full
Apr 22
Last Quarter

Hourly Weather History & Observations

Time (EDT) Temp. Windchill Dew Point Humidity Pressure Visibility Wind Dir Wind Speed Gust Speed Precip Events Conditions
12:15 AM 32.5 °F 28.1 °F 14.2 °F 47% 30.12 in 10.0 mi NNE 4.6 mph - N/A   Scattered Clouds
12:35 AM 30.2 °F 25.4 °F 12.6 °F 48% 30.12 in 10.0 mi NNE 4.6 mph - N/A   Clear
12:55 AM 30.2 °F 26.7 °F 14.0 °F 51% 30.11 in 10.0 mi NNE 3.5 mph - N/A   Clear
1:15 AM 30.2 °F 26.7 °F 13.5 °F 50% 30.10 in 10.0 mi NNE 3.5 mph - N/A   Clear
1:35 AM 27.9 °F - 17.4 °F 65% 30.10 in 10.0 mi Calm Calm - N/A   Clear
1:55 AM 27.9 °F - 16.5 °F 62% 30.10 in 10.0 mi Calm Calm - N/A   Clear
2:15 AM 27.9 °F - 17.4 °F 65% 30.10 in 10.0 mi Calm Calm - N/A   Clear
2:35 AM 28.0 °F - 16.7 °F 62% 30.10 in 10.0 mi Calm Calm - N/A   Clear
2:55 AM 27.9 °F - 17.8 °F 66% 30.10 in 10.0 mi Calm Calm - N/A   Mostly Cloudy
3:15 AM 27.9 °F - 18.0 °F 66% 30.09 in 10.0 mi Calm Calm - N/A   Overcast
3:35 AM 27.9 °F - 16.9 °F 63% 30.09 in 10.0 mi Calm Calm - N/A   Overcast
3:55 AM 27.9 °F - 16.7 °F 63% 30.07 in 10.0 mi Calm Calm - N/A   Overcast
4:15 AM 27.9 °F - 17.4 °F 65% 30.06 in 10.0 mi Calm Calm - N/A   Overcast
4:35 AM 27.9 °F - 17.8 °F 66% 30.05 in 10.0 mi Calm Calm - N/A   Overcast
4:55 AM 27.9 °F - 18.5 °F 68% 30.04 in 10.0 mi Calm Calm - N/A   Overcast
5:15 AM 27.9 °F - 19.2 °F 70% 30.04 in 10.0 mi Calm Calm - N/A   Overcast
5:35 AM 27.9 °F - 18.7 °F 68% 30.03 in 10.0 mi Calm Calm - N/A   Overcast
5:55 AM 27.9 °F - 19.4 °F 71% 30.03 in 10.0 mi Calm Calm - N/A   Overcast
6:15 AM 27.9 °F - 18.7 °F 68% 30.02 in 10.0 mi Calm Calm - N/A   Overcast
6:35 AM 27.9 °F - 19.0 °F 69% 30.02 in 10.0 mi Calm Calm - N/A   Overcast
6:55 AM 27.9 °F - 19.9 °F 72% 30.02 in 10.0 mi Calm Calm - N/A   Overcast
7:15 AM 27.9 °F - 20.7 °F 74% 30.02 in 10.0 mi Calm Calm - N/A   Mostly Cloudy
7:35 AM 27.9 °F - 20.1 °F 73% 30.02 in 10.0 mi Calm Calm - N/A   Overcast
7:55 AM 27.9 °F - 19.2 °F 70% 30.02 in 10.0 mi Calm Calm - N/A   Overcast
8:15 AM 27.9 °F - 20.1 °F 73% 30.02 in 10.0 mi Calm Calm - N/A   Overcast
8:35 AM 27.9 °F - 18.7 °F 68% 30.01 in 10.0 mi Calm Calm - N/A   Mostly Cloudy
8:55 AM 27.9 °F - 18.1 °F 67% 30.01 in 10.0 mi Calm Calm - N/A   Mostly Cloudy
9:15 AM 30.2 °F - 20.5 °F 67% 30.01 in 10.0 mi Calm Calm - N/A   Overcast
9:35 AM 32.5 °F - 20.7 °F 62% 30.01 in 10.0 mi Calm Calm - N/A   Overcast
9:55 AM 32.5 °F 28.1 °F 16.3 °F 51% 30.01 in 10.0 mi SW 4.6 mph - N/A   Overcast
10:15 AM 34.0 °F 28.0 °F 14.0 °F 44% 30.01 in 10.0 mi SW 6.9 mph - N/A   Overcast
10:35 AM 35.1 °F 30.1 °F 13.1 °F 40% 30.01 in 10.0 mi SW 5.8 mph - N/A   Overcast
10:55 AM 35.1 °F 29.3 °F 12.2 °F 39% 30.01 in 10.0 mi WSW 6.9 mph - N/A   Overcast
11:15 AM 35.1 °F 28.6 °F 12.6 °F 40% 30.02 in 10.0 mi WNW 8.1 mph - N/A   Overcast
11:35 AM 35.1 °F 28.6 °F 11.8 °F 38% 30.02 in 10.0 mi West 8.1 mph 16.1 mph N/A   Overcast
11:55 AM 35.2 °F 28.1 °F 11.5 °F 37% 30.01 in 10.0 mi West 9.2 mph - N/A   Overcast
12:15 PM 36.0 °F 29.0 °F 12.6 °F 38% 30.01 in 10.0 mi West 9.2 mph 17.3 mph N/A   Overcast
12:35 PM 35.1 °F 27.4 °F 13.3 °F 41% 30.01 in 10.0 mi West 10.4 mph 18.4 mph N/A   Overcast
12:55 PM 35.1 °F 25.9 °F 14.7 °F 43% 30.01 in 10.0 mi West 13.8 mph 19.6 mph N/A   Overcast
1:15 PM 36.1 °F 26.5 °F 19.9 °F 52% 30.01 in 10.0 mi West 16.1 mph 26.5 mph N/A   Overcast
1:35 PM 35.1 °F 26.4 °F 22.3 °F 60% 30.01 in 7.0 mi West 12.7 mph 20.7 mph N/A   Overcast
2:15 PM 30.2 °F 21.9 °F 24.6 °F 80% 30.02 in 0.2 mi WNW 9.2 mph 29.9 mph N/A Snow Snow
2:35 PM 32.5 °F 22.3 °F 25.3 °F 75% 30.02 in 4.0 mi WNW 15.0 mph 19.6 mph N/A Snow Light Snow
2:55 PM 33.1 °F 20.6 °F 22.3 °F 65% 30.02 in 10.0 mi NW 23.0 mph 33.4 mph N/A   Mostly Cloudy
3:15 PM 32.5 °F 20.5 °F 23.2 °F 68% 30.03 in 10.0 mi NW 20.7 mph 27.6 mph N/A   Overcast
3:35 PM 32.5 °F 20.5 °F 22.5 °F 66% 30.03 in 7.0 mi NW 20.7 mph 27.6 mph N/A Snow Light Snow
3:55 PM 32.5 °F 21.2 °F 23.2 °F 68% 30.04 in 5.0 mi NNW 18.4 mph 32.2 mph N/A Snow Light Snow
4:15 PM 32.5 °F 21.2 °F 22.1 °F 65% 30.04 in 10.0 mi NW 18.4 mph 25.3 mph N/A   Mostly Cloudy
4:35 PM 29.1 °F 18.9 °F 23.0 °F 78% 30.06 in 0.8 mi NW 12.7 mph 27.6 mph N/A Snow Light Snow
4:55 PM 32.5 °F 22.7 °F 20.8 °F 62% 30.05 in 10.0 mi West 13.8 mph 19.6 mph N/A   Mostly Cloudy
5:15 PM 34.5 °F 24.1 °F 15.1 °F 45% 30.05 in 10.0 mi WNW 17.3 mph 28.8 mph N/A   Scattered Clouds
5:35 PM 32.5 °F 23.2 °F 13.8 °F 46% 30.07 in 10.0 mi NW 12.7 mph 20.7 mph N/A   Scattered Clouds
5:55 PM 32.5 °F 21.2 °F 9.9 °F 39% 30.08 in 10.0 mi NW 18.4 mph 24.2 mph N/A   Scattered Clouds
6:15 PM 32.5 °F 21.9 °F 10.8 °F 40% 30.09 in 10.0 mi WNW 16.1 mph 21.9 mph N/A   Mostly Cloudy
6:35 PM 32.5 °F 23.2 °F 17.6 °F 54% 30.09 in 5.0 mi WNW 12.7 mph 25.3 mph N/A Snow Light Snow
6:55 PM 32.5 °F 23.2 °F 16.3 °F 51% 30.10 in 7.0 mi NW 12.7 mph 16.1 mph N/A Snow Light Snow
7:15 PM 32.0 °F 22.5 °F 16.0 °F 52% 30.11 in 10.0 mi WNW 12.7 mph 23.0 mph N/A   Mostly Cloudy
7:35 PM 29.3 °F 20.8 °F 15.3 °F 56% 30.12 in 10.0 mi WNW 9.2 mph 19.6 mph N/A   Mostly Cloudy
7:55 PM 28.6 °F 19.9 °F 18.1 °F 65% 30.13 in 7.0 mi WNW 9.2 mph 19.6 mph N/A Snow Light Snow
8:15 PM 27.9 °F 20.6 °F 16.5 °F 62% 30.13 in 10.0 mi WNW 6.9 mph - N/A   Mostly Cloudy
8:35 PM 27.9 °F 19.1 °F 14.0 °F 56% 30.15 in 10.0 mi NW 9.2 mph - N/A   Scattered Clouds
8:55 PM 27.9 °F 18.4 °F 14.7 °F 58% 30.15 in 10.0 mi NW 10.4 mph 18.4 mph N/A   Mostly Cloudy
9:15 PM 27.9 °F 19.1 °F 16.2 °F 62% 30.16 in 10.0 mi NW 9.2 mph 20.7 mph N/A   Mostly Cloudy
9:35 PM 27.9 °F 18.4 °F 16.0 °F 61% 30.17 in 10.0 mi NW 10.4 mph 17.3 mph N/A   Scattered Clouds
9:55 PM 27.9 °F 19.8 °F 16.3 °F 62% 30.18 in 10.0 mi NW 8.1 mph - N/A   Clear
10:15 PM 27.9 °F 21.5 °F 16.9 °F 63% 30.18 in 10.0 mi NW 5.8 mph - N/A   Clear
10:35 PM 27.9 °F 22.6 °F 17.1 °F 64% 30.19 in 10.0 mi NNW 4.6 mph - N/A   Clear
10:55 PM 27.9 °F 18.4 °F 16.5 °F 62% 30.20 in 10.0 mi NNW 10.4 mph - N/A   Scattered Clouds
11:15 PM 27.9 °F 21.5 °F 16.5 °F 62% 30.20 in 10.0 mi NNW 5.8 mph - N/A   Mostly Cloudy
11:35 PM 27.9 °F 18.4 °F 16.7 °F 63% 30.21 in 10.0 mi NW 10.4 mph 18.4 mph N/A   Mostly Cloudy
11:55 PM 27.9 °F 19.8 °F 17.1 °F 64% 30.21 in 10.0 mi NW 8.1 mph - N/A   Mostly Cloudy